Location: San Antonio
(29.4240°N, 98.4930°W)
Time: 04:20:53
(UTC-05:00)

Explorer 11/Cluster Stage 4 - All Passes

Search period start: 15 July 2024 00:00
Search period end: 25 July 2024 00:00
Orbit: 465 x 1215 km, 28.8° (Epoch: 14 July)

Date Brightness Start Highest point End Pass type
(mag) Time Alt. Az. Time Alt. Az. Time Alt. Az.
15 Jul - 09:54:30 10° SSW 09:57:27 18° SSE 10:00:09 10° ESE daylight
15 Jul - 11:41:12 10° WSW 11:44:59 50° SSE 11:48:28 10° E daylight
15 Jul - 13:28:56 10° W 13:32:33 83° S 13:36:15 10° E daylight
15 Jul - 15:16:34 10° W 15:20:09 53° SSW 15:24:11 10° ESE daylight
15 Jul - 17:04:41 10° WSW 17:07:44 20° SSW 17:11:12 10° SSE daylight
16 Jul - 09:36:11 10° SSW 09:39:39 21° SSE 09:42:43 10° ESE daylight
16 Jul - 11:23:15 10° WSW 11:27:13 55° SSE 11:30:47 10° E daylight
16 Jul - 13:11:09 10° W 13:14:49 82° S 13:18:27 10° E daylight
16 Jul - 14:58:53 10° W 15:02:23 48° SSW 15:06:13 10° ESE daylight
16 Jul - 16:47:16 10° WSW 16:49:55 17° SSW 16:52:49 10° SSE daylight
17 Jul - 09:17:51 10° SW 09:21:47 24° SSE 09:25:13 10° ESE daylight
17 Jul - 11:05:15 10° WSW 11:09:26 59° S 11:13:06 10° E daylight
17 Jul - 12:53:18 10° W 12:57:04 82° S 13:00:40 10° E daylight
17 Jul - 14:41:11 10° W 14:44:37 44° SSW 14:48:15 10° ESE daylight
17 Jul - 16:29:55 10° WSW 16:32:04 14° SSW 16:34:23 10° S daylight
18 Jul - 08:59:30 10° SW 09:03:55 28° SSE 09:07:40 10° E daylight
18 Jul - 10:47:12 10° WSW 10:51:38 64° S 10:55:24 10° E daylight
18 Jul - 12:35:25 10° W 12:39:18 81° S 12:42:54 10° E daylight
18 Jul - 14:23:25 10° W 14:26:49 40° SSW 14:30:18 10° SE daylight
18 Jul - 16:12:41 10° SW 16:14:12 12° SSW 16:15:48 10° S daylight
19 Jul - 06:56:06 10° S 06:58:04 12° SSE 06:59:57 10° SE daylight
19 Jul - 08:41:08 10° SW 08:46:00 32° SSE 08:50:04 10° E daylight
19 Jul - 10:29:05 10° WSW 10:33:47 69° S 10:37:43 10° E daylight
19 Jul - 12:17:28 10° W 12:21:30 80° S 12:25:08 10° E daylight
19 Jul - 14:05:38 10° W 14:09:00 36° SSW 14:12:22 10° SE daylight
20 Jul - 06:36:53 10° S 06:40:04 14° SSE 06:42:59 10° SE daylight
20 Jul - 08:22:44 10° SW 08:28:03 36° SSE 08:32:25 10° E daylight
20 Jul - 10:10:55 10° WSW 10:15:55 73° S 10:20:00 10° E daylight
20 Jul - 11:59:28 10° W 12:03:41 78° S 12:07:22 10° E daylight
20 Jul - 13:47:46 10° W 13:51:10 33° SSW 13:54:27 10° SE daylight
21 Jul - 06:17:56 10° SSW 06:22:00 17° SSE 06:25:40 10° ESE visible
21 Jul - 08:04:19 10° SW 08:10:04 41° SSE 08:14:44 10° E daylight
21 Jul - 09:52:43 10° WSW 09:58:01 76° S 10:02:16 10° E daylight
21 Jul - 11:41:23 10° W 11:45:49 76° S 11:49:37 10° E daylight
21 Jul - 13:29:53 10° W 13:33:19 31° SSW 13:36:32 10° SE daylight
22 Jul - 05:59:07 10° SSW 06:03:54 19° SSE 06:08:09 10° ESE visible
22 Jul - 07:45:54 10° SW 07:52:01 45° SSE 07:56:59 10° E daylight
22 Jul - 09:34:27 10° W 09:40:04 79° S 09:44:32 10° E daylight
22 Jul - 11:23:15 10° W 11:27:57 75° S 11:31:51 10° ESE daylight
22 Jul - 13:11:55 10° W 13:15:25 29° SSW 13:18:37 10° SE daylight
23 Jul - 05:40:22 10° SSW 05:45:44 22° SSE 05:50:31 10° ESE visible
23 Jul - 07:27:26 10° WSW 07:33:56 50° SSE 07:39:12 10° E daylight
23 Jul - 09:16:09 10° W 09:22:04 81° S 09:26:45 10° E daylight
23 Jul - 11:05:04 10° W 11:10:01 73° S 11:14:04 10° ESE daylight
23 Jul - 12:53:55 10° W 12:57:29 27° SSW 13:00:42 10° SE daylight
24 Jul - 05:21:40 10° SSW 05:27:32 25° SSE 05:32:46 10° ESE visible
24 Jul - 07:08:59 10° WSW 07:15:48 54° SSE 07:21:22 10° E daylight
24 Jul - 08:57:49 10° W 09:04:02 83° S 09:08:57 10° E daylight
24 Jul - 10:46:50 10° W 10:52:03 71° S 10:56:16 10° ESE daylight
24 Jul - 12:35:52 10° W 12:39:32 26° SSW 12:42:46 10° SSE daylight
